Change the Weather History Date:

Thursday, August 21, 2014

  Actual Average Record
Temperature  
Mean Temperature 54 °F -  
Max Temperature 64 °F 66 °F 84 °F (1997)
Min Temperature 45 °F 52 °F 45 °F (2014)
Degree Days  
Heating Degree Days 10    
Growing Degree Days 4 (Base 50)    
Moisture  
Dew Point 49 °F    
Average Humidity 75    
Maximum Humidity 100    
Minimum Humidity 50    
Precipitation  
Precipitation 0.04 in - - ()
Sea Level Pressure  
Sea Level Pressure 29.97 in    
Wind  
Wind Speed 6 mph ()    
Max Wind Speed 16 mph    
Max Gust Speed -    
Visibility 7.4 miles    
Events Fog , Rain    
Averages and records for this station are not official NWS values.
T = Trace of Precipitation, MM = Missing Value Source: Averaged Metar Reports

Daily Weather History Graph

Daily Weather History Graph

Search for Another Location

Airport or City:

Trip Planner

Search our weather history database for the weather conditions in past years. The results will help you decide how hot, cold, wet, or windy it might be!

Date:

Astronomy

Aug. 21, 2014 Rise Set
Actual Time 6:35 AM CEST 8:53 PM CEST
Civil Twilight 5:58 AM CEST 9:30 PM CEST
Nautical Twilight 5:12 AM CEST 10:17 PM CEST
Astronomical Twilight 4:17 AM CEST 11:11 PM CEST
Moon 2:39 AM CEST (8/21) 6:22 PM CEST (8/21)
Length of Visible Light 15h 31m
Length of Day
14h 17m
Waning Crescent, 15% of the Moon is Illuminated
Aug 21
Waning Crescent
Aug 25
New
Sep 2
First Quarter
Sep 9
Full
Sep 16
Last Quarter

Hourly Weather History & Observations

Time (CEST) Temp. Dew Point Humidity Pressure Visibility Wind Dir Wind Speed Gust Speed Precip Events Conditions
12:00 AM 51 °F 47 °F 83% 30.02 in 25 mi Calm Calm - -   Partly Cloudy
12:25 AM 50.0 °F 48.2 °F 94% 30.01 in 6.2 mi South 2.3 mph - N/A   Partly Cloudy
12:55 AM 53.6 °F 48.2 °F 82% 30.01 in 6.2 mi SW 8.1 mph - N/A   Scattered Clouds
1:00 AM 54 °F 50 °F 82% 30.02 in 19 mi SSW 6.7 mph - - Rain Light Drizzle
1:25 AM 53.6 °F 50.0 °F 88% 30.01 in 6.2 mi South 6.9 mph - N/A   Partly Cloudy
1:55 AM 51.8 °F 48.2 °F 88% 30.01 in 6.2 mi SW 4.6 mph - N/A   Unknown
2:00 AM 51 °F 47 °F 82% 30.02 in 28 mi SSW 4.5 mph - - Rain Drizzle
2:25 AM 51.8 °F 48.2 °F 88% 30.01 in 6.2 mi SW 4.6 mph - N/A   Unknown
2:55 AM 51.8 °F 48.2 °F 88% 30.01 in 6.2 mi SSW 8.1 mph - N/A   Unknown
3:00 AM 52 °F 47 °F 79% 30.01 in 28 mi SSW 8.9 mph - -   Overcast
3:25 AM 51.8 °F 48.2 °F 88% 30.01 in 6.2 mi SSW 6.9 mph - N/A   Unknown
3:55 AM 50.0 °F 48.2 °F 94% 30.01 in 6.2 mi Variable 2.3 mph - N/A   Unknown
4:00 AM 50 °F 48 °F 89% 30.01 in 28 mi West 2.2 mph - -  
4:25 AM 48.2 °F 46.4 °F 93% 30.01 in 6.2 mi West 2.3 mph - N/A   Unknown
4:55 AM 48.2 °F 46.4 °F 93% 30.01 in 6.2 mi West 2.3 mph - N/A   Unknown
5:00 AM 47 °F 47 °F 100% 30.01 in 3 mi Calm Calm - -   Mist
5:25 AM 48.2 °F 46.4 °F 93% 30.01 in 6.2 mi West 1.2 mph - N/A   Unknown
5:55 AM 46.4 °F 46.4 °F 100% 29.98 in 3.1 mi Calm Calm - N/A   Mist
6:00 AM 46 °F 46 °F 98% 30.00 in 3 mi Calm Calm - - Fog Fog
6:25 AM 46.4 °F 46.4 °F 100% 29.98 in - West 1.2 mph - N/A   Mist
6:55 AM 46.4 °F 46.4 °F 100% 29.98 in 6.2 mi South 2.3 mph - N/A   Unknown
7:00 AM 48 °F 48 °F 98% 30.00 in 11 mi South 2.2 mph - -   Partly Cloudy
7:25 AM 53.6 °F 50.0 °F 88% 29.98 in 6.2 mi SSW 5.8 mph - N/A   Unknown
7:55 AM 53.6 °F 50.0 °F 88% 29.98 in 6.2 mi SSW 3.5 mph - N/A   Unknown
8:00 AM 54 °F 50 °F 82% 30.00 in 14 mi SW 4.5 mph - -   Partly Cloudy
8:25 AM 53.6 °F 50.0 °F 88% 29.98 in 6.2 mi SW 4.6 mph - N/A   Unknown
8:55 AM 55.4 °F 50.0 °F 82% 29.98 in 6.2 mi SW 4.6 mph - N/A   Unknown
9:00 AM 56 °F 50 °F 73% 30.00 in 25 mi WSW 4.5 mph - -   Mostly Cloudy
9:25 AM 57.2 °F 48.2 °F 72% 29.98 in 6.2 mi SW 4.6 mph - N/A   Partly Cloudy
9:55 AM 57.2 °F 48.2 °F 72% 29.98 in 6.2 mi WSW 6.9 mph - N/A   Partly Cloudy
10:00 AM 58 °F 48 °F 62% 30.00 in 28 mi WSW 6.7 mph - -   Overcast
10:25 AM 57.2 °F 50.0 °F 77% 29.98 in 6.2 mi WSW 9.2 mph - N/A   Drizzle
10:55 AM 59.0 °F 50.0 °F 72% 29.98 in 6.2 mi SW 10.4 mph - N/A   Unknown
11:00 AM 61 °F 51 °F 62% 30.00 in 22 mi SSW 11.2 mph - - Rain Rain
11:25 AM 60.8 °F 51.8 °F 72% 29.98 in 6.2 mi SW 12.7 mph - N/A   Partly Cloudy
11:55 AM 60.8 °F 50.0 °F 68% 29.98 in 6.2 mi SW 13.8 mph - N/A   Scattered Clouds
12:00 PM 63 °F 51 °F 56% 30.00 in 19 mi SW 15.7 mph - -   Partly Cloudy
12:25 PM 62.6 °F 51.8 °F 68% 29.98 in 6.2 mi SW 13.8 mph - N/A   Mostly Cloudy
12:55 PM 60.8 °F 50.0 °F 68% 29.98 in 6.2 mi WSW 15.0 mph - N/A   Partly Cloudy
1:00 PM 60 °F 51 °F 63% 30.00 in 22 mi WSW 11.2 mph - -   Partly Cloudy
1:25 PM 57.2 °F 53.6 °F 88% 29.98 in 5.0 mi SW 10.4 mph - N/A Rain Rain Showers
1:55 PM 59.0 °F 53.6 °F 82% 29.98 in 6.2 mi South 5.8 mph - N/A Rain Light Rain
2:00 PM 60 °F 53 °F 72% 29.99 in 12 mi WSW 4.5 mph - - Rain Light Rain Showers
2:25 PM 60.8 °F 51.8 °F 72% 29.98 in 6.2 mi WSW 8.1 mph - N/A   Mostly Cloudy
2:55 PM 62.6 °F 51.8 °F 68% 29.98 in 6.2 mi West 11.5 mph - N/A   Partly Cloudy
3:00 PM 63 °F 50 °F 53% 29.98 in 17 mi West 13.4 mph - - Rain Rain
3:25 PM 62.6 °F 50.0 °F 63% 29.98 in 6.2 mi WSW 11.5 mph - N/A   Unknown
3:55 PM 64.4 °F 50.0 °F 59% 29.95 in 6.2 mi WSW 13.8 mph - N/A   Mostly Cloudy
4:00 PM 64 °F 51 °F 53% 29.97 in 17 mi WSW 13.4 mph - -   Overcast
4:25 PM 62.6 °F 48.2 °F 59% 29.95 in 6.2 mi WSW 12.7 mph - N/A   Partly Cloudy
4:55 PM 62.6 °F 46.4 °F 55% 29.95 in 6.2 mi West 12.7 mph - N/A   Scattered Clouds
5:00 PM 62 °F 48 °F 50% 29.97 in 25 mi WSW 11.2 mph - -   Scattered Clouds
5:25 PM 62.6 °F 48.2 °F 59% 29.95 in 6.2 mi WSW 12.7 mph - N/A   Partly Cloudy
5:55 PM 62.6 °F 50.0 °F 63% 29.95 in 6.2 mi West 9.2 mph - N/A   Unknown
6:00 PM 61 °F 48 °F 53% 29.96 in 19 mi WSW 13.4 mph - -   Mostly Cloudy
6:25 PM 60.8 °F 50.0 °F 68% 29.95 in 6.2 mi WSW 10.4 mph - N/A   Scattered Clouds
6:55 PM 60.8 °F 50.0 °F 68% 29.95 in 6.2 mi WSW 10.4 mph - N/A   Scattered Clouds
7:00 PM 61 °F 49 °F 55% 29.95 in 22 mi WSW 11.2 mph - -   Mostly Cloudy
7:25 PM 60.8 °F 50.0 °F 68% 29.92 in 6.2 mi SW 8.1 mph - N/A   Scattered Clouds
7:55 PM 60.8 °F 48.2 °F 63% 29.92 in 6.2 mi WSW 12.7 mph - N/A   Mostly Cloudy
8:00 PM 61 °F 48 °F 53% 29.94 in 28 mi SW 13.4 mph - -   Partly Cloudy
8:25 PM 59.0 °F 46.4 °F 63% 29.92 in 6.2 mi WSW 9.2 mph - N/A   Unknown
8:55 PM 57.2 °F 46.4 °F 67% 29.92 in 6.2 mi SW 12.7 mph - N/A   Unknown
9:00 PM 57 °F 47 °F 60% 29.93 in 25 mi SW 8.9 mph - -  
9:25 PM 57.2 °F 48.2 °F 72% 29.92 in 6.2 mi SW 10.4 mph - N/A   Unknown
9:55 PM 59.0 °F 50.0 °F 72% 29.92 in 6.2 mi SW 11.5 mph - N/A   Partly Cloudy
10:00 PM 59 °F 49 °F 61% 29.92 in 25 mi SSW 11.2 mph - -   Overcast
10:25 PM 59.0 °F 50.0 °F 72% 29.92 in 6.2 mi SW 13.8 mph - N/A   Mostly Cloudy
10:55 PM 57.2 °F 50.0 °F 77% 29.92 in 6.2 mi SSW 16.1 mph - N/A   Scattered Clouds
11:00 PM 58 °F 51 °F 71% 29.93 in 25 mi SSW 13.4 mph - - Rain Rain
11:25 PM 57.2 °F 51.8 °F 82% 29.92 in 6.2 mi SW 13.8 mph - N/A Rain Light Rain
11:55 PM 57.2 °F 51.8 °F 82% 29.89 in 6.2 mi South 8.1 mph - N/A   Scattered Clouds